SCP
0 0 0 0 0 0 0 0 0 0 0 0 0 0 0 0 0 0 0 0 0 0 0 -0 -1 -1 -1 -1 -1 -1 -0 -0 -0 -0 -0 -0 -0 -0 -0 -0 -0 -0 -0 -0 -0 0 0 0 0
0 0 0 0 0 0 0 0 0 0 0 0 0 0 0 0 0 0 0 0 0 1 0 0 -0 -1 -1 -1 -1 -1 -1 -0 -0 -0 -0 -0 -0 -0 -0 -0 -0 -0 -0 -0 0 0 0 -0 0
0 0 0 0 0 0 0 0 0 0 0 0 0 0 0 0 0 0 0 0 1 1 1 1 0 0 -0 -0 -1 -0 -0 -0 -0 -0 -0 -0 -0 -0 -0 0 0 -0 -0 -0 0 0 0 0 0
0 0 0 0 0 0 0 0 0 0 0 0 0 0 0 1 0 0 0 0 1 1 1 1 0 -0 -0 -0 -0 -0 -0 -0 -0 -0 -0 -0 -0 -0 -0 0 0 -0 -0 0 0 -0 -0 -0 -0
0 0 0 0 0 0 0 0 -0 0 0 0 0 0 1 1 1 1 1 0 1 1 1 1 1 1 1 0 0 -0 -0 -0 -0 -0 -0 -0 -0 -0 -0 -0 -0 0 0 -0 -0 -0 -0 -0 -0
0 0 0 0 0 0 0 0 0 0 0 0 0 0 1 1 1 1 1 1 1 1 2 2 1 1 1 1 0 0 0 -0 -0 -0 -0 -0 -0 -0 0 0 0 0 0 -0 -0 -0 -0 -0 -0
0 0 0 0 0 0 0 0 0 0 0 0 0 1 1 0 1 1 1 1 1 2 2 2 2 1 1 1 1 0 0 0 0 -0 0 0 -0 0 0 0 0 0 0 0 -0 -0 -0 -0 -0
0 0 0 0 0 0 0 0 0 0 0 0 -0 0 1 -0 0 1 2 2 2 2 2 2 2 2 1 1 1 1 1 1 0 0 0 0 0 0 0 0 0 0 0 0 0 -0 -0 -0 -0
0 0 0 0 0 0 0 0 0 0 0 0 0 0 0 2 0 2 3 3 2 1 1 1 1 2 2 1 1 1 1 1 1 1 0 0 0 0 0 0 0 0 0 0 0 0 -0 -0 -0
0 0 0 0 0 0 0 0 0 0 0 0 -0 0 1 1 1 2 3 3 2 1 1 2 2 1 1 1 1 1 1 1 1 1 1 0 0 0 0 0 0 0 0 0 0 0 0 0 0
0 0 0 0 0 0 0 0 -0 0 0 0 0 -1 1 1 1 2 2 2 3 3 2 1 2 2 2 2 2 2 1 1 1 1 1 0 0 0 0 0 0 0 0 0 0 0 0 0 0
0 0 0 0 0 0 0 0 0 0 0 0 0 0 1 1 1 0 0 0 3 3 2 2 2 2 2 2 2 1 1 1 1 1 1 0 0 0 0 0 0 0 0 0 0 0 0 0 0
0 0 0 0 0 0 0 0 0 0 0 0 0 0 0 1 0 0 1 1 1 1 1 1 1 1 2 2 2 1 1 1 1 1 1 1 0 0 0 0 0 0 0 0 0 0 0 0 0
0 0 0 0 0 0 0 0 0 -0 0 0 0 0 0 0 0 0 1 0 0 0 0 0 1 1 1 1 1 1 1 1 1 1 1 1 0 0 0 0 0 0 0 0 0 0 0 0 0
0 0 0 0 0 0 0 0 -0 -0 0 0 0 0 0 0 0 0 1 0 0 0 0 0 0 0 0 0 0 0 0 0 0 0 0 0 0 0 0 0 0 0 0 0 0 0 0 0 0
0 0 0 0 0 0 0 0 -0 -0 0 0 0 0 0 0 0 0 0 1 0 0 0 0 0 0 0 0 0 0 0 0 0 0 0 0 0 0 0 0 0 0 0 0 0 0 0 0 0
0 0 0 0 0 0 0 0 0 0 0 0 0 0 0 0 0 0 0 1 0 0 0 0 0 0 0 0 0 0 0 0 0 0 0 0 0 0 0 0 0 0 0 0 0 0 0 0 0
0 0 0 0 0 0 0 0 0 0 0 0 0 0 0 0 0 0 1 1 1 0 0 0 0 0 0 0 0 0 0 0 0 0 0 0 0 0 0 0 0 0 0 0 0 0 0 0 0
0 0 0 0 0 0 0 0 0 0 0 0 0 0 0 0 0 0 1 2 2 1 0 0 0 0 0 0 0 1 0 0 0 0 0 0 0 0 0 0 0 0 0 0 0 0 0 0 0
0 0 0 0 0 0 0 0 0 0 0 0 0 0 0 0 0 0 1 2 1 1 0 0 0 0 0 0 0 0 0 0 0 0 0 0 0 0 0 0 0 0 0 0 0 0 0 0 0
0 0 0 0 0 0 0 0 0 0 0 0 0 0 0 0 0 0 1 1 1 1 0 0 0 0 0 0 0 0 0 0 0 0 0 0 0 0 0 0 0 0 0 0 0 0 0 0 0
0 0 0 0 0 0 0 0 0 0 0 0 0 0 0 0 0 0 1 1 1 0 0 0 0 0 0 0 0 0 0 0 0 0 0 0 0 0 0 0 0 0 0 0 0 0 0 0 0
0 0 0 0 0 0 0 0 0 0 0 0 0 -0 -0 0 0 0 1 1 1 0 0 0 0 0 0 0 0 0 0 0 0 0 0 0 0 0 0 0 0 0 0 0 0 0 0 0 0
0 0 0 0 0 0 0 0 0 0 0 0 0 0 0 0 0 0 1 2 2 1 0 0 0 0 0 0 0 0 0 0 0 0 0 0 0 0 0 0 0 0 0 0 0 0 0 0 0
0 0 0 0 0 0 -0 0 0 0 0 0 0 -0 0 0 0 1 1 2 1 1 1 0 0 0 0 0 0 0 0 0 0 0 0 0 0 0 0 0 0 0 0 0 0 0 0 0 0
0 0 0 0 0 0 0 0 0 0 0 0 0 -0 0 0 0 1 0 0 0 0 0 0 0 0 0 0 0 0 0 0 0 0 0 0 0 0 0 0 0 0 0 0 0 0 0 0 0
0 0 0 0 0 0 0 0 0 0 0 0 0 0 0 0 1 0 0 0 0 0 0 0 0 0 0 0 0 0 0 0 0 0 0 0 0 0 0 0 0 0 0 0 0 0 0 0 0
0 0 0 0 0 0 0 0 0 0 0 0 0 0 0 0 0 0 0 0 0 0 0 0 0 0 0 0 0 0 0 0 0 0 0 0 0 0 0 0 0 0 0 0 0 0 0 0 0
0 0 0 0 0 0 0 0 0 0 0 0 0 0 0 0 0 0 0 0 0 0 0 0 0 0 0 0 0 0 0 0 0 0 0 0 0 0 0 0 0 0 0 0 0 0 0 0 0
0 0 0 0 0 0 0 0 0 0 0 0 0 0 0 0 0 0 0 0 0 0 0 0 0 0 0 0 0 0 0 0 0 0 0 0 0 0 0 0 0 0 0 0 0 0 0 0 0
Wind_Speed_500mb
19 16 8 4 5 8 8 15 5 8 7 6 35 17 15 15 12 9 18 50 46 62 68 68 63 58 52 47 43 39 34 30 26 26 29 30 32 33 35 32 27 23 23 25 26 26 25 25 27
15 15 13 7 9 2 11 11 27 15 13 40 43 7 3 7 9 6 34 48 42 62 67 67 63 59 54 50 46 41 34 28 25 25 31 33 34 37 37 32 27 25 26 28 29 29 28 29 30
19 24 12 9 9 16 13 9 4 11 23 34 11 34 6 5 6 12 12 49 47 61 64 66 64 59 55 49 44 39 34 29 25 25 29 32 35 39 37 31 28 27 28 29 28 28 29 31 34
17 15 4 7 19 22 19 7 10 20 43 17 23 13 15 2 5 14 23 42 51 62 63 64 62 57 53 48 43 38 33 27 22 22 27 31 34 39 39 35 32 30 29 30 31 30 30 35 33
22 8 4 6 17 13 14 12 9 12 15 46 38 14 14 7 10 4 31 37 53 58 59 61 57 53 49 45 42 39 34 29 23 19 21 27 30 34 35 34 31 30 30 29 28 28 29 31 29
11 6 4 11 19 34 9 26 19 17 31 58 17 14 11 21 13 15 34 41 51 54 58 59 56 52 48 44 41 38 35 32 26 20 19 23 26 28 29 29 27 23 21 22 23 25 25 25 25
12 8 12 10 30 34 11 25 16 21 15 44 19 10 14 32 28 32 36 41 53 52 56 59 56 51 48 44 39 38 36 33 28 22 18 17 21 23 25 26 24 20 17 17 19 20 20 21 21
11 8 10 14 13 21 9 16 13 17 24 41 15 11 10 47 42 46 41 41 45 50 53 54 54 51 47 45 43 39 36 34 30 26 20 18 18 21 22 24 22 20 17 17 18 19 18 18 20
20 4 10 16 18 12 10 1 6 23 27 50 24 19 29 45 56 55 51 50 49 51 52 52 50 50 49 46 42 40 40 38 34 29 24 21 19 19 23 25 26 25 22 19 18 19 19 20 21
11 11 19 12 11 9 13 7 13 14 38 37 21 23 27 59 71 68 64 62 56 60 62 59 55 52 50 47 44 43 44 42 38 31 26 23 21 22 23 27 28 25 22 19 18 17 19 22 22
14 16 12 9 28 29 15 18 23 9 14 10 24 7 46 72 68 55 56 57 62 63 61 62 60 56 52 50 48 46 43 42 39 37 31 28 26 26 25 26 28 27 24 22 22 21 22 21 22
15 23 27 15 45 15 11 39 16 25 33 44 30 4 56 65 60 54 52 53 54 55 58 57 55 54 53 49 44 42 40 38 36 35 33 33 31 29 26 25 25 24 22 23 25 28 30 31 29
9 4 16 56 48 44 52 29 21 49 59 58 42 13 43 52 60 62 50 47 46 46 52 51 48 51 57 57 49 43 38 34 32 36 35 33 31 27 26 21 21 29 28 30 30 30 31 35 35
12 40 40 35 30 27 25 31 19 52 43 54 40 24 19 25 47 60 44 51 48 47 45 43 51 61 61 55 57 53 43 37 33 36 39 34 33 26 29 28 26 26 29 32 34 33 32 27 23
24 19 16 19 50 14 23 30 51 46 49 52 45 29 21 20 24 33 49 59 54 48 41 37 44 57 59 56 54 48 43 46 33 40 46 38 36 34 32 35 33 32 32 32 35 33 31 29 29
14 13 19 8 18 16 29 44 35 28 42 55 54 44 36 32 30 29 30 45 47 41 41 38 49 52 56 52 65 60 55 58 52 51 47 42 42 39 39 42 39 35 36 35 26 20 26 40 56
11 8 17 12 19 12 28 14 32 38 44 52 50 44 41 31 30 34 37 45 45 44 42 45 45 51 51 55 61 66 63 66 62 56 40 35 39 37 41 46 46 42 38 44 47 42 54 47 48
11 8 8 13 13 21 33 21 18 36 37 45 49 49 48 48 34 36 45 46 49 48 46 49 50 51 57 54 59 59 69 65 63 43 40 44 35 39 45 45 47 42 65 60 38 41 55 38 45
15 12 11 9 15 16 16 14 19 28 32 30 40 47 52 62 47 37 52 57 59 58 56 47 48 49 45 56 65 64 72 65 42 38 40 44 44 19 30 48 48 43 41 39 26 36 38 47 39
16 14 11 6 11 9 14 19 18 19 19 35 54 59 57 52 53 48 48 62 70 60 54 47 44 50 55 54 60 62 52 48 43 43 45 36 32 36 32 42 35 36 28 24 24 23 27 37 37
39 32 12 8 2 5 7 14 16 17 22 48 57 64 66 63 62 48 50 62 71 67 55 49 40 48 54 57 61 56 53 50 55 55 47 29 33 27 25 24 21 21 27 29 30 31 30 25 24
41 21 18 11 7 7 9 10 13 16 22 22 43 49 63 61 55 56 55 67 71 67 57 54 48 50 53 58 59 59 56 50 56 50 33 30 28 21 20 22 19 25 28 30 33 28 27 31 27
17 19 15 10 7 2 13 3 15 4 15 16 19 47 60 63 64 61 62 66 73 71 69 58 58 55 59 55 53 48 41 33 34 32 26 26 26 22 24 27 21 32 26 21 26 27 28 32 35
11 13 11 6 8 10 22 13 11 8 13 8 11 40 53 46 45 55 64 70 79 74 68 64 58 56 55 51 46 38 25 27 25 27 29 30 33 34 34 36 30 28 26 26 29 32 34 37 43
17 16 4 6 7 15 16 13 16 11 10 5 12 28 40 48 49 58 64 73 79 79 71 61 55 62 57 41 35 33 32 24 21 24 32 36 41 44 42 34 27 27 28 30 35 39 45 52 57
18 20 11 13 11 8 18 11 9 6 12 22 36 29 12 37 53 59 64 77 83 80 66 57 53 55 50 37 34 33 33 30 27 31 33 34 34 33 31 29 30 32 34 39 44 50 53 57 60
19 24 21 7 4 9 6 6 0 16 26 28 40 59 55 42 42 44 54 72 75 60 55 52 48 47 41 39 41 41 40 39 35 32 32 34 37 36 36 37 38 39 43 47 51 53 56 58 60
19 19 13 2 7 6 4 5 7 8 20 27 33 43 50 59 51 56 54 52 54 50 50 48 43 44 39 34 33 34 32 30 30 30 27 27 28 29 32 36 40 43 45 49 52 54 54 56 58
18 17 8 12 9 9 8 2 3 14 24 33 29 49 62 71 75 77 77 68 59 50 42 40 38 34 34 33 29 28 25 22 21 22 22 22 24 29 33 37 40 43 46 48 52 55 59 61 61
5 11 19 8 9 5 10 4 10 17 32 37 43 57 70 77 83 83 76 68 62 56 48 39 38 37 32 28 23 21 17 14 15 17 20 24 28 32 37 40 44 47 51 54 57 58 56 56 55
Wind_Direction_500mb
240 238 242 217 39 61 260 256 239 270 272 302 320 271 208 176 171 213 162 170 170 175 173 172 172 172 173 172 168 164 161 158 156 160 164 163 160 160 156 152 149 146 142 142 139 137 138 142 140
205 201 184 145 119 210 254 241 238 222 297 321 327 142 84 259 252 202 158 166 174 176 174 174 173 174 176 177 173 170 166 160 155 159 163 163 162 161 159 157 154 148 146 144 142 142 143 141 141
179 175 167 148 165 207 234 228 196 288 303 306 286 334 207 1 303 186 163 170 173 179 177 176 176 178 178 178 175 173 172 165 158 159 164 165 164 164 165 162 158 154 150 147 146 145 144 144 144
171 170 153 141 214 235 218 157 1 338 319 322 345 336 307 43 151 177 170 178 175 181 178 178 178 180 178 178 177 176 175 172 165 163 167 169 169 171 172 170 165 161 160 157 154 152 153 155 156
173 162 134 221 250 248 240 269 297 287 293 284 328 300 283 236 168 215 173 179 176 180 179 179 179 181 179 178 179 180 179 179 178 172 173 177 178 180 179 175 172 170 168 167 163 162 164 169 169
163 140 111 212 243 249 253 255 264 260 274 285 294 226 256 232 198 189 173 179 180 182 180 180 180 183 182 182 182 184 185 185 186 184 184 186 190 189 188 183 180 180 178 178 178 178 177 181 186
161 124 204 209 237 260 193 244 212 245 283 285 271 169 235 213 185 185 174 176 182 186 182 182 182 184 185 185 186 189 190 192 192 195 195 198 202 204 204 200 195 194 195 201 200 200 202 203 204
211 127 192 210 199 257 227 230 239 283 289 305 277 185 221 198 188 179 177 172 183 188 189 184 185 188 191 191 193 193 193 196 198 200 201 204 210 213 216 216 213 212 218 218 219 220 228 234 234
201 191 214 208 184 222 183 64 283 303 301 312 291 263 270 221 184 180 174 172 181 189 190 189 191 195 197 198 199 199 198 197 201 205 208 211 218 220 224 225 224 225 230 233 236 239 242 247 252
182 195 217 208 211 215 245 278 331 319 318 309 359 343 252 201 184 187 183 177 179 183 186 191 194 196 198 199 201 203 204 202 204 212 222 226 230 236 233 233 232 234 239 243 247 247 254 258 267
201 228 202 236 236 253 258 291 274 274 284 295 357 112 173 178 184 187 187 188 184 184 187 192 195 195 198 201 202 203 202 205 207 214 226 233 238 247 253 252 244 236 240 246 257 270 272 272 277
237 221 216 220 244 263 260 257 268 244 253 289 306 186 177 178 188 194 199 195 194 189 192 193 194 198 200 204 204 206 204 208 218 224 226 235 237 244 251 253 248 245 247 250 254 260 262 267 268
250 274 222 228 240 252 269 263 270 268 269 279 286 182 188 193 194 201 207 199 203 205 202 205 200 210 209 205 199 199 202 212 221 229 233 234 237 248 248 241 226 223 227 238 249 259 269 274 275
211 220 243 253 242 239 250 271 250 262 266 273 265 223 194 200 214 212 211 204 205 209 202 213 220 214 209 209 210 203 198 202 211 226 232 230 231 241 237 219 221 228 239 253 264 273 276 278 290
253 272 272 238 243 244 255 273 244 262 259 262 263 237 224 218 193 201 214 213 206 208 207 217 218 209 210 216 201 195 220 217 217 237 231 221 223 228 231 220 225 236 244 256 266 273 274 275 279
201 207 247 184 190 224 181 254 272 258 239 242 252 254 246 236 230 211 197 199 196 204 208 203 195 204 213 220 218 230 233 226 229 230 231 220 222 220 229 225 230 234 234 237 243 267 292 286 266
239 206 216 257 193 226 194 245 267 258 231 233 244 251 253 246 235 226 208 194 195 197 200 201 203 213 213 215 223 233 235 225 227 238 247 237 233 225 232 232 235 235 245 258 269 267 279 274 253
192 182 169 175 212 203 244 242 273 267 236 220 235 245 254 266 230 217 210 206 198 197 196 202 204 209 208 216 225 228 222 227 240 255 231 233 235 245 244 243 250 248 272 271 268 275 267 264 263
191 208 191 186 224 189 233 240 236 255 253 263 252 245 248 248 264 253 209 200 196 194 197 198 205 206 205 215 218 228 233 244 238 236 233 238 229 242 251 262 267 258 276 250 252 262 262 262 248
236 225 208 207 243 170 259 264 240 242 248 236 251 258 256 248 248 252 217 199 195 192 188 192 194 209 213 218 229 225 230 224 241 248 248 247 229 223 214 246 254 257 256 243 243 233 232 245 251
224 224 169 167 22 302 354 300 287 268 240 248 253 259 257 253 250 240 212 201 198 193 190 180 187 204 211 220 219 222 214 245 238 233 239 225 212 227 229 239 243 241 253 254 241 234 240 243 235
216 192 186 180 157 220 143 274 272 272 259 228 238 240 246 252 245 240 216 199 196 193 184 183 193 202 204 209 202 210 229 240 238 240 244 223 225 228 238 238 221 231 240 238 233 220 234 240 242
203 168 170 168 173 340 247 231 270 272 269 228 223 236 245 245 238 223 220 211 198 185 182 189 199 196 191 192 204 212 222 226 232 233 229 228 230 241 249 239 241 237 231 220 226 237 237 240 248
123 136 183 158 128 247 230 167 276 250 221 202 216 225 229 225 222 212 205 198 186 185 187 198 199 191 182 188 199 204 214 222 217 215 219 218 228 237 233 233 226 222 228 235 241 244 250 257 267
166 139 180 166 182 227 152 162 230 272 288 244 249 266 259 218 183 183 190 188 184 185 194 195 197 188 185 193 199 216 227 235 248 249 243 241 236 231 223 221 229 237 240 243 247 254 262 268 273
179 169 163 177 171 194 119 201 234 5 16 55 61 61 95 163 166 177 182 179 184 188 191 189 188 191 193 200 224 228 231 236 248 245 232 218 208 205 211 219 228 236 240 248 258 267 273 278 280
173 199 188 82 133 110 172 176 269 39 38 48 59 67 69 92 112 131 154 173 178 178 174 176 188 190 200 216 221 228 233 239 230 209 192 198 208 213 218 227 236 248 258 266 271 273 274 274 277
170 161 181 164 206 137 146 123 193 8 74 79 76 81 85 97 106 123 134 143 148 160 168 181 191 189 200 197 200 200 195 181 178 181 185 202 215 228 240 252 259 266 271 273 276 279 282 284 285
200 178 90 139 153 164 127 281 237 126 104 95 90 92 93 96 104 108 108 111 114 114 117 125 139 134 143 151 155 163 172 177 188 202 215 232 246 256 264 270 275 279 283 288 290 292 292 289 288
240 182 176 138 201 208 128 202 99 128 118 105 99 100 100 102 107 108 104 104 105 107 113 116 127 135 131 133 143 150 159 182 205 226 241 252 260 267 274 278 281 284 285 288 293 296 294 290 289
Wind_Speed_850mb
19 16 8 4 5 8 8 15 5 8 7 6 35 17 15 15 12 9 18 50 46 62 68 68 63 58 52 47 43 39 34 30 26 26 29 30 32 33 35 32 27 23 23 25 26 26 25 25 27
15 15 13 7 9 2 11 11 27 15 13 40 43 7 3 7 9 6 34 48 42 62 67 67 63 59 54 50 46 41 34 28 25 25 31 33 34 37 37 32 27 25 26 28 29 29 28 29 30
19 24 12 9 9 16 13 9 4 11 23 34 11 34 6 5 6 12 12 49 47 61 64 66 64 59 55 49 44 39 34 29 25 25 29 32 35 39 37 31 28 27 28 29 28 28 29 31 34
17 15 4 7 19 22 19 7 10 20 43 17 23 13 15 2 5 14 23 42 51 62 63 64 62 57 53 48 43 38 33 27 22 22 27 31 34 39 39 35 32 30 29 30 31 30 30 35 33
22 8 4 6 17 13 14 12 9 12 15 46 38 14 14 7 10 4 31 37 53 58 59 61 57 53 49 45 42 39 34 29 23 19 21 27 30 34 35 34 31 30 30 29 28 28 29 31 29
11 6 4 11 19 34 9 26 19 17 31 58 17 14 11 21 13 15 34 41 51 54 58 59 56 52 48 44 41 38 35 32 26 20 19 23 26 28 29 29 27 23 21 22 23 25 25 25 25
12 8 12 10 30 34 11 25 16 21 15 44 19 10 14 32 28 32 36 41 53 52 56 59 56 51 48 44 39 38 36 33 28 22 18 17 21 23 25 26 24 20 17 17 19 20 20 21 21
11 8 10 14 13 21 9 16 13 17 24 41 15 11 10 47 42 46 41 41 45 50 53 54 54 51 47 45 43 39 36 34 30 26 20 18 18 21 22 24 22 20 17 17 18 19 18 18 20
20 4 10 16 18 12 10 1 6 23 27 50 24 19 29 45 56 55 51 50 49 51 52 52 50 50 49 46 42 40 40 38 34 29 24 21 19 19 23 25 26 25 22 19 18 19 19 20 21
11 11 19 12 11 9 13 7 13 14 38 37 21 23 27 59 71 68 64 62 56 60 62 59 55 52 50 47 44 43 44 42 38 31 26 23 21 22 23 27 28 25 22 19 18 17 19 22 22
14 16 12 9 28 29 15 18 23 9 14 10 24 7 46 72 68 55 56 57 62 63 61 62 60 56 52 50 48 46 43 42 39 37 31 28 26 26 25 26 28 27 24 22 22 21 22 21 22
15 23 27 15 45 15 11 39 16 25 33 44 30 4 56 65 60 54 52 53 54 55 58 57 55 54 53 49 44 42 40 38 36 35 33 33 31 29 26 25 25 24 22 23 25 28 30 31 29
9 4 16 56 48 44 52 29 21 49 59 58 42 13 43 52 60 62 50 47 46 46 52 51 48 51 57 57 49 43 38 34 32 36 35 33 31 27 26 21 21 29 28 30 30 30 31 35 35
12 40 40 35 30 27 25 31 19 52 43 54 40 24 19 25 47 60 44 51 48 47 45 43 51 61 61 55 57 53 43 37 33 36 39 34 33 26 29 28 26 26 29 32 34 33 32 27 23
24 19 16 19 50 14 23 30 51 46 49 52 45 29 21 20 24 33 49 59 54 48 41 37 44 57 59 56 54 48 43 46 33 40 46 38 36 34 32 35 33 32 32 32 35 33 31 29 29
14 13 19 8 18 16 29 44 35 28 42 55 54 44 36 32 30 29 30 45 47 41 41 38 49 52 56 52 65 60 55 58 52 51 47 42 42 39 39 42 39 35 36 35 26 20 26 40 56
11 8 17 12 19 12 28 14 32 38 44 52 50 44 41 31 30 34 37 45 45 44 42 45 45 51 51 55 61 66 63 66 62 56 40 35 39 37 41 46 46 42 38 44 47 42 54 47 48
11 8 8 13 13 21 33 21 18 36 37 45 49 49 48 48 34 36 45 46 49 48 46 49 50 51 57 54 59 59 69 65 63 43 40 44 35 39 45 45 47 42 65 60 38 41 55 38 45
15 12 11 9 15 16 16 14 19 28 32 30 40 47 52 62 47 37 52 57 59 58 56 47 48 49 45 56 65 64 72 65 42 38 40 44 44 19 30 48 48 43 41 39 26 36 38 47 39
16 14 11 6 11 9 14 19 18 19 19 35 54 59 57 52 53 48 48 62 70 60 54 47 44 50 55 54 60 62 52 48 43 43 45 36 32 36 32 42 35 36 28 24 24 23 27 37 37
39 32 12 8 2 5 7 14 16 17 22 48 57 64 66 63 62 48 50 62 71 67 55 49 40 48 54 57 61 56 53 50 55 55 47 29 33 27 25 24 21 21 27 29 30 31 30 25 24
41 21 18 11 7 7 9 10 13 16 22 22 43 49 63 61 55 56 55 67 71 67 57 54 48 50 53 58 59 59 56 50 56 50 33 30 28 21 20 22 19 25 28 30 33 28 27 31 27
17 19 15 10 7 2 13 3 15 4 15 16 19 47 60 63 64 61 62 66 73 71 69 58 58 55 59 55 53 48 41 33 34 32 26 26 26 22 24 27 21 32 26 21 26 27 28 32 35
11 13 11 6 8 10 22 13 11 8 13 8 11 40 53 46 45 55 64 70 79 74 68 64 58 56 55 51 46 38 25 27 25 27 29 30 33 34 34 36 30 28 26 26 29 32 34 37 43
17 16 4 6 7 15 16 13 16 11 10 5 12 28 40 48 49 58 64 73 79 79 71 61 55 62 57 41 35 33 32 24 21 24 32 36 41 44 42 34 27 27 28 30 35 39 45 52 57
18 20 11 13 11 8 18 11 9 6 12 22 36 29 12 37 53 59 64 77 83 80 66 57 53 55 50 37 34 33 33 30 27 31 33 34 34 33 31 29 30 32 34 39 44 50 53 57 60
19 24 21 7 4 9 6 6 0 16 26 28 40 59 55 42 42 44 54 72 75 60 55 52 48 47 41 39 41 41 40 39 35 32 32 34 37 36 36 37 38 39 43 47 51 53 56 58 60
19 19 13 2 7 6 4 5 7 8 20 27 33 43 50 59 51 56 54 52 54 50 50 48 43 44 39 34 33 34 32 30 30 30 27 27 28 29 32 36 40 43 45 49 52 54 54 56 58
18 17 8 12 9 9 8 2 3 14 24 33 29 49 62 71 75 77 77 68 59 50 42 40 38 34 34 33 29 28 25 22 21 22 22 22 24 29 33 37 40 43 46 48 52 55 59 61 61
5 11 19 8 9 5 10 4 10 17 32 37 43 57 70 77 83 83 76 68 62 56 48 39 38 37 32 28 23 21 17 14 15 17 20 24 28 32 37 40 44 47 51 54 57 58 56 56 55
Wind_Direction_850mb
240 238 242 217 39 61 260 256 239 270 272 302 320 271 208 176 171 213 162 170 170 175 173 172 172 172 173 172 168 164 161 158 156 160 164 163 160 160 156 152 149 146 142 142 139 137 138 142 140
205 201 184 145 119 210 254 241 238 222 297 321 327 142 84 259 252 202 158 166 174 176 174 174 173 174 176 177 173 170 166 160 155 159 163 163 162 161 159 157 154 148 146 144 142 142 143 141 141
179 175 167 148 165 207 234 228 196 288 303 306 286 334 207 1 303 186 163 170 173 179 177 176 176 178 178 178 175 173 172 165 158 159 164 165 164 164 165 162 158 154 150 147 146 145 144 144 144
171 170 153 141 214 235 218 157 1 338 319 322 345 336 307 43 151 177 170 178 175 181 178 178 178 180 178 178 177 176 175 172 165 163 167 169 169 171 172 170 165 161 160 157 154 152 153 155 156
173 162 134 221 250 248 240 269 297 287 293 284 328 300 283 236 168 215 173 179 176 180 179 179 179 181 179 178 179 180 179 179 178 172 173 177 178 180 179 175 172 170 168 167 163 162 164 169 169
163 140 111 212 243 249 253 255 264 260 274 285 294 226 256 232 198 189 173 179 180 182 180 180 180 183 182 182 182 184 185 185 186 184 184 186 190 189 188 183 180 180 178 178 178 178 177 181 186
161 124 204 209 237 260 193 244 212 245 283 285 271 169 235 213 185 185 174 176 182 186 182 182 182 184 185 185 186 189 190 192 192 195 195 198 202 204 204 200 195 194 195 201 200 200 202 203 204
211 127 192 210 199 257 227 230 239 283 289 305 277 185 221 198 188 179 177 172 183 188 189 184 185 188 191 191 193 193 193 196 198 200 201 204 210 213 216 216 213 212 218 218 219 220 228 234 234
201 191 214 208 184 222 183 64 283 303 301 312 291 263 270 221 184 180 174 172 181 189 190 189 191 195 197 198 199 199 198 197 201 205 208 211 218 220 224 225 224 225 230 233 236 239 242 247 252
182 195 217 208 211 215 245 278 331 319 318 309 359 343 252 201 184 187 183 177 179 183 186 191 194 196 198 199 201 203 204 202 204 212 222 226 230 236 233 233 232 234 239 243 247 247 254 258 267
201 228 202 236 236 253 258 291 274 274 284 295 357 112 173 178 184 187 187 188 184 184 187 192 195 195 198 201 202 203 202 205 207 214 226 233 238 247 253 252 244 236 240 246 257 270 272 272 277
237 221 216 220 244 263 260 257 268 244 253 289 306 186 177 178 188 194 199 195 194 189 192 193 194 198 200 204 204 206 204 208 218 224 226 235 237 244 251 253 248 245 247 250 254 260 262 267 268
250 274 222 228 240 252 269 263 270 268 269 279 286 182 188 193 194 201 207 199 203 205 202 205 200 210 209 205 199 199 202 212 221 229 233 234 237 248 248 241 226 223 227 238 249 259 269 274 275
211 220 243 253 242 239 250 271 250 262 266 273 265 223 194 200 214 212 211 204 205 209 202 213 220 214 209 209 210 203 198 202 211 226 232 230 231 241 237 219 221 228 239 253 264 273 276 278 290
253 272 272 238 243 244 255 273 244 262 259 262 263 237 224 218 193 201 214 213 206 208 207 217 218 209 210 216 201 195 220 217 217 237 231 221 223 228 231 220 225 236 244 256 266 273 274 275 279
201 207 247 184 190 224 181 254 272 258 239 242 252 254 246 236 230 211 197 199 196 204 208 203 195 204 213 220 218 230 233 226 229 230 231 220 222 220 229 225 230 234 234 237 243 267 292 286 266
239 206 216 257 193 226 194 245 267 258 231 233 244 251 253 246 235 226 208 194 195 197 200 201 203 213 213 215 223 233 235 225 227 238 247 237 233 225 232 232 235 235 245 258 269 267 279 274 253
192 182 169 175 212 203 244 242 273 267 236 220 235 245 254 266 230 217 210 206 198 197 196 202 204 209 208 216 225 228 222 227 240 255 231 233 235 245 244 243 250 248 272 271 268 275 267 264 263
191 208 191 186 224 189 233 240 236 255 253 263 252 245 248 248 264 253 209 200 196 194 197 198 205 206 205 215 218 228 233 244 238 236 233 238 229 242 251 262 267 258 276 250 252 262 262 262 248
236 225 208 207 243 170 259 264 240 242 248 236 251 258 256 248 248 252 217 199 195 192 188 192 194 209 213 218 229 225 230 224 241 248 248 247 229 223 214 246 254 257 256 243 243 233 232 245 251
224 224 169 167 22 302 354 300 287 268 240 248 253 259 257 253 250 240 212 201 198 193 190 180 187 204 211 220 219 222 214 245 238 233 239 225 212 227 229 239 243 241 253 254 241 234 240 243 235
216 192 186 180 157 220 143 274 272 272 259 228 238 240 246 252 245 240 216 199 196 193 184 183 193 202 204 209 202 210 229 240 238 240 244 223 225 228 238 238 221 231 240 238 233 220 234 240 242
203 168 170 168 173 340 247 231 270 272 269 228 223 236 245 245 238 223 220 211 198 185 182 189 199 196 191 192 204 212 222 226 232 233 229 228 230 241 249 239 241 237 231 220 226 237 237 240 248
123 136 183 158 128 247 230 167 276 250 221 202 216 225 229 225 222 212 205 198 186 185 187 198 199 191 182 188 199 204 214 222 217 215 219 218 228 237 233 233 226 222 228 235 241 244 250 257 267
166 139 180 166 182 227 152 162 230 272 288 244 249 266 259 218 183 183 190 188 184 185 194 195 197 188 185 193 199 216 227 235 248 249 243 241 236 231 223 221 229 237 240 243 247 254 262 268 273
179 169 163 177 171 194 119 201 234 5 16 55 61 61 95 163 166 177 182 179 184 188 191 189 188 191 193 200 224 228 231 236 248 245 232 218 208 205 211 219 228 236 240 248 258 267 273 278 280
173 199 188 82 133 110 172 176 269 39 38 48 59 67 69 92 112 131 154 173 178 178 174 176 188 190 200 216 221 228 233 239 230 209 192 198 208 213 218 227 236 248 258 266 271 273 274 274 277
170 161 181 164 206 137 146 123 193 8 74 79 76 81 85 97 106 123 134 143 148 160 168 181 191 189 200 197 200 200 195 181 178 181 185 202 215 228 240 252 259 266 271 273 276 279 282 284 285
200 178 90 139 153 164 127 281 237 126 104 95 90 92 93 96 104 108 108 111 114 114 117 125 139 134 143 151 155 163 172 177 188 202 215 232 246 256 264 270 275 279 283 288 290 292 292 289 288
240 182 176 138 201 208 128 202 99 128 118 105 99 100 100 102 107 108 104 104 105 107 113 116 127 135 131 133 143 150 159 182 205 226 241 252 260 267 274 278 281 284 285 288 293 296 294 290 289